• In Uzbekistan
  • List of Countries
  • For 7 days
  • Water Temperature
  • Satellite Maps
  • Weather Map
  • Weather Widgets
  • user-avatar
    Login

    Hourly Weather Namibe

    Today, 24 May, Wednesday

    Time Temperature Precipitation Wind Pressure Humidity
    00:00 +28°C° 0 mm 3 mps 758 mmHg 48%
    01:00 +28°C° 0 mm 3 mps 758 mmHg 47%
    02:00 +28°C° 0 mm 3 mps 758 mmHg 46%
    03:00 +28°C° 0 mm 3 mps 758 mmHg 46%
    04:00 +27°C° 0 mm 3 mps 758 mmHg 45%
    05:00 +27°C° 0 mm 3 mps 758 mmHg 44%
    06:00 +27°C° 0 mm 3 mps 758 mmHg 42%
    07:00 +27°C° 0 mm 3 mps 759 mmHg 41%
    08:00 +30°C° 0 mm 3 mps 759 mmHg 35%
    09:00 +34°C° 0 mm 3 mps 759 mmHg 28%
    10:00 +36°C° 0 mm 3 mps 759 mmHg 22%
    11:00 +38°C° 0 mm 3 mps 758 mmHg 20%
    12:00 +40°C° 0 mm 4 mps 758 mmHg 17%
    13:00 +41°C° 0 mm 5 mps 757 mmHg 15%
    14:00 +40°C° 0 mm 6 mps 757 mmHg 17%
    15:00 +39°C° 0 mm 7 mps 757 mmHg 18%
    16:00 +39°C° 0 mm 7 mps 757 mmHg 20%
    17:00 +35°C° 0 mm 7 mps 757 mmHg 25%
    18:00 +33°C° 0 mm 6 mps 757 mmHg 29%
    19:00 +30°C° 0 mm 6 mps 758 mmHg 34%
    20:00 +29°C° 0 mm 5 mps 758 mmHg 34%
    21:00 +29°C° 0 mm 4 mps 758 mmHg 34%
    22:00 +28°C° 0 mm 3 mps 759 mmHg 34%
    23:00 +28°C° 0 mm 3 mps 759 mmHg 33%

    Tomorrow, 25 May, Thursday

    Time Temperature Precipitation Wind Pressure Humidity
    00:00 +28°C° 0 mm 3 mps 758 mmHg 32%
    01:00 +27°C° 0 mm 2 mps 758 mmHg 31%
    02:00 +27°C° 0 mm 2 mps 758 mmHg 30%
    03:00 +27°C° 0 mm 2 mps 758 mmHg 30%
    04:00 +26°C° 0 mm 2 mps 758 mmHg 29%
    05:00 +27°C° 0 mm 2 mps 758 mmHg 28%
    06:00 +27°C° 0 mm 3 mps 758 mmHg 27%
    07:00 +27°C° 0 mm 3 mps 758 mmHg 26%
    08:00 +30°C° 0 mm 3 mps 759 mmHg 22%
    09:00 +33°C° 0 mm 3 mps 759 mmHg 18%
    10:00 +36°C° 0 mm 3 mps 759 mmHg 14%
    11:00 +37°C° 0 mm 4 mps 758 mmHg 14%
    12:00 +39°C° 0 mm 5 mps 758 mmHg 14%
    13:00 +40°C° 0 mm 6 mps 757 mmHg 14%
    14:00 +40°C° 0 mm 6 mps 757 mmHg 17%
    15:00 +39°C° 0 mm 7 mps 756 mmHg 20%
    16:00 +38°C° 0 mm 7 mps 756 mmHg 23%
    17:00 +34°C° 0 mm 6 mps 756 mmHg 29%
    18:00 +32°C° 0 mm 6 mps 757 mmHg 35%
    19:00 +29°C° 0 mm 5 mps 757 mmHg 42%
    20:00 +29°C° 0 mm 4 mps 757 mmHg 43%
    21:00 +28°C° 0 mm 4 mps 758 mmHg 45%
    22:00 +27°C° 0 mm 3 mps 758 mmHg 47%
    23:00 +27°C° 0 mm 3 mps 758 mmHg 46%

    Day after tomorrow, 26 May, Friday

    Time Temperature Precipitation Wind Pressure Humidity
    00:00 +27°C° 0 mm 3 mps 758 mmHg 46%
    01:00 +27°C° 0 mm 3 mps 758 mmHg 45%
    02:00 +26°C° 0 mm 3 mps 758 mmHg 46%
    03:00 +26°C° 0 mm 3 mps 758 mmHg 46%
    04:00 +26°C° 0 mm 3 mps 757 mmHg 47%
    05:00 +26°C° 0 mm 3 mps 758 mmHg 46%
    06:00 +26°C° 0 mm 3 mps 758 mmHg 46%
    07:00 +26°C° 0 mm 2 mps 758 mmHg 45%
    08:00 +29°C° 0 mm 2 mps 758 mmHg 37%
    09:00 +32°C° 0 mm 2 mps 759 mmHg 29%
    10:00 +36°C° 0 mm 2 mps 759 mmHg 21%
    11:00 +38°C° 0 mm 3 mps 758 mmHg 20%
    12:00 +40°C° 0 mm 4 mps 758 mmHg 20%
    13:00 +41°C° 0 mm 5 mps 757 mmHg 19%
    14:00 +39°C° 0 mm 5 mps 757 mmHg 25%
    15:00 +38°C° 0 mm 6 mps 756 mmHg 30%
    16:00 +35°C° 0 mm 6 mps 756 mmHg 36%
    17:00 +34°C° 0 mm 5 mps 756 mmHg 42%
    18:00 +32°C° 0 mm 4 mps 757 mmHg 48%
    19:00 +29°C° 0 mm 3 mps 757 mmHg 54%
    20:00 +29°C° 0 mm 2 mps 758 mmHg 55%
    21:00 +28°C° 0 mm 1 mps 758 mmHg 56%
    22:00 +28°C° 0 mm 1 mps 759 mmHg 57%
    23:00 +28°C° 0 mm 1 mps 759 mmHg 56%

    27 May, Saturday

    Time Temperature Precipitation Wind Pressure Humidity
    00:00 +28°C° 0 mm 1 mps 758 mmHg 54%
    01:00 +28°C° 0 mm 1 mps 758 mmHg 53%
    02:00 +27°C° 0 mm 1 mps 758 mmHg 53%
    03:00 +27°C° 0 mm 1 mps 758 mmHg 52%
    04:00 +27°C° 0 mm 1 mps 758 mmHg 52%
    05:00 +27°C° 0 mm 1 mps 758 mmHg 52%
    06:00 +27°C° 0 mm 1 mps 759 mmHg 51%
    07:00 +28°C° 0 mm 1 mps 759 mmHg 51%
    08:00 +30°C° 0 mm 1 mps 759 mmHg 44%
    09:00 +32°C° 0 mm 1 mps 760 mmHg 37%
    10:00 +35°C° 0 mm 2 mps 760 mmHg 30%
    11:00 +37°C° 0 mm 2 mps 759 mmHg 28%
    12:00 +38°C° 0 mm 3 mps 759 mmHg 26%
    13:00 +40°C° 0 mm 4 mps 758 mmHg 25%
    14:00 +38°C° 0 mm 4 mps 758 mmHg 28%
    15:00 +37°C° 0 mm 5 mps 757 mmHg 32%
    16:00 +36°C° 0 mm 5 mps 757 mmHg 35%
    17:00 +34°C° 0 mm 4 mps 757 mmHg 39%
    18:00 +33°C° 0 mm 4 mps 758 mmHg 43%
    19:00 +30°C° 0 mm 3 mps 758 mmHg 46%
    20:00 +30°C° 0 mm 2 mps 759 mmHg 47%
    21:00 +29°C° 0 mm 2 mps 759 mmHg 48%
    22:00 +29°C° 0 mm 1 mps 759 mmHg 49%
    23:00 +28°C° 0 mm 1 mps 759 mmHg 50%

    28 May, Sunday

    Time Temperature Precipitation Wind Pressure Humidity
    00:00 +28°C° 0 mm 2 mps 759 mmHg 50%
    01:00 +28°C° 0 mm 2 mps 759 mmHg 51%
    02:00 +27°C° 0 mm 2 mps 759 mmHg 52%
    03:00 +27°C° 0 mm 2 mps 759 mmHg 53%
    04:00 +26°C° 0 mm 2 mps 759 mmHg 54%
    05:00 +27°C° 0 mm 2 mps 759 mmHg 52%
    06:00 +27°C° 0 mm 2 mps 759 mmHg 51%
    07:00 +27°C° 0 mm 2 mps 759 mmHg 49%
    08:00 +30°C° 0 mm 2 mps 760 mmHg 41%
    09:00 +34°C° 0 mm 2 mps 760 mmHg 32%
    10:00 +37°C° 0 mm 2 mps 760 mmHg 24%
    11:00 +38°C° 0 mm 3 mps 759 mmHg 22%
    12:00 +40°C° 0 mm 4 mps 759 mmHg 20%
    13:00 +41°C° 0 mm 4 mps 758 mmHg 19%
    14:00 +41°C° 0 mm 5 mps 758 mmHg 20%
    15:00 +40°C° 0 mm 5 mps 757 mmHg 22%
    16:00 +40°C° 0 mm 6 mps 757 mmHg 23%
    17:00 +36°C° 0 mm 5 mps 758 mmHg 31%
    18:00 +34°C° 0 mm 4 mps 758 mmHg 38%
    19:00 +30°C° 0 mm 4 mps 759 mmHg 45%
    20:00 +30°C° 0 mm 3 mps 759 mmHg 46%
    21:00 +30°C° 0 mm 3 mps 760 mmHg 47%
    22:00 +29°C° 0 mm 2 mps 760 mmHg 48%
    23:00 +29°C° 0 mm 2 mps 760 mmHg 47%

    29 May, Monday

    Time Temperature Precipitation Wind Pressure Humidity
    00:00 +29°C° 0 mm 2 mps 759 mmHg 46%
    01:00 +28°C° 0 mm 2 mps 759 mmHg 45%
    02:00 +28°C° 0 mm 3 mps 759 mmHg 45%
    03:00 +28°C° 0 mm 3 mps 759 mmHg 45%
    04:00 +28°C° 0 mm 3 mps 759 mmHg 44%
    05:00 +28°C° 0 mm 3 mps 759 mmHg 42%
    06:00 +29°C° 0 mm 4 mps 759 mmHg 40%
    07:00 +29°C° 0 mm 4 mps 760 mmHg 38%
    08:00 +33°C° 0 mm 4 mps 760 mmHg 32%
    09:00 +36°C° 0 mm 4 mps 760 mmHg 26%
    10:00 +38°C° 0 mm 4 mps 760 mmHg 20%
    11:00 +40°C° 0 mm 4 mps 759 mmHg 18%
    12:00 +42°C° 0 mm 4 mps 758 mmHg 17%
    13:00 +43°C° 0 mm 5 mps 758 mmHg 15%
    14:00 +42°C° 0 mm 5 mps 757 mmHg 17%
    15:00 +42°C° 0 mm 6 mps 757 mmHg 19%
    16:00 +41°C° 0 mm 7 mps 757 mmHg 21%
    17:00 +38°C° 0 mm 6 mps 757 mmHg 28%
    18:00 +35°C° 0 mm 6 mps 758 mmHg 35%
    19:00 +32°C° 0 mm 5 mps 758 mmHg 42%
    20:00 +32°C° 0 mm 5 mps 759 mmHg 43%
    21:00 +30°C° 0 mm 4 mps 759 mmHg 44%
    22:00 +30°C° 0 mm 4 mps 759 mmHg 44%
    23:00 +29°C° 0 mm 3 mps 759 mmHg 44%
    Show more